EW7824 Weather Reports


time (UTC)temp
F
wind
direction
speed
knots
gust
knots
rain 1hr
in
rain 24hr
in
rain mn
in
humidity
%
barometer
mb
20260507163902 63 201 10.4 14.8 0.00 0.00 0.00 43 1017.0
20260507163403 63 205 7.8 20.0 0.00 0.00 0.00 45 1016.9
20260507161903 62 261 12.2 19.1 0.00 0.00 0.00 45 1017.1
20260507161402 62 202 12.2 18.2 0.00 0.00 0.00 46 1017.1
20260507160902 61 249 13.9 21.7 0.00 0.00 0.00 47 1017.2
20260507160403 61 253 14.8 19.1 0.00 0.00 0.00 46 1017.3
20260507154902 61 239 7.0 19.1 0.00 0.00 0.00 50 1017.4
20260507154402 61 228 11.3 15.6 0.00 0.00 0.00 49 1017.4
20260507153902 60 251 13.0 18.2 0.00 0.00 0.00 50 1017.5
20260507151903 59 233 13.9 20.9 0.00 0.00 0.00 52 1017.7
20260507151402 59 232 13.0 18.2 0.00 0.00 0.00 52 1017.8
20260507150903 59 231 10.4 20.9 0.00 0.00 0.00 53 1017.8
20260507150403 58 238 8.7 19.1 0.00 0.00 0.00 56 1017.9
20260507144903 57 227 12.2 15.6 0.00 0.00 0.00 57 1018.1
20260507144403 56 205 13.0 15.6 0.00 0.00 0.00 57 1018.2
20260507143902 56 263 8.7 19.1 0.00 0.00 0.00 59 1018.3
20260507143403 56 257 10.4 14.8 0.00 0.00 0.00 60 1018.3
20260507141903 55 278 9.6 15.6 0.00 0.00 0.00 61 1018.5
20260507141403 55 231 10.4 13.0 0.00 0.00 0.00 62 1018.5
20260507140403 54 252 8.7 14.8 0.00 0.00 0.00 64 1018.6
20260507134903 53 253 7.8 13.9 0.00 0.00 0.00 66 1018.7
20260507134402 53 262 11.3 15.6 0.00 0.00 0.00 66 1018.7
20260507133902 53 257 8.7 12.2 0.00 0.00 0.00 67 1018.7
20260507133403 53 234 6.1 13.0 0.00 0.00 0.00 69 1018.6
20260507131903 51 257 6.1 8.7 0.00 0.00 0.00 72 1018.7
20260507131403 51 240 7.8 13.0 0.00 0.00 0.00 73 1018.8
20260507130903 50 256 6.1 7.8 0.00 0.00 0.00 74 1018.8
20260507130403 50 255 5.2 12.2 0.00 0.00 0.00 76 1018.8
20260507124403 47 256 6.1 7.8 0.00 0.00 0.00 81 1018.7
20260507123403 46 239 5.2 7.8 0.00 0.00 0.00 84 1018.7
20260507121903 44 260 4.3 7.0 0.00 0.00 0.00 85 1018.7
20260507121402 44 222 2.6 6.1 0.00 0.00 0.00 85 1018.7
20260507120402 43 231 2.6 4.3 0.00 0.00 0.00 85 1018.7
20260507114903 43 234 0.9 1.7 0.00 0.00 0.00 85 1018.7
20260507114403 43 224 1.7 4.3 0.00 0.00 0.00 85 1018.6
20260507113902 43 213 1.7 4.3 0.00 0.00 0.00 85 1018.6
20260507113405 43 242 2.6 5.2 0.00 0.00 0.00 84 1018.6
20260507111904 43 251 0.0 1.7 0.00 0.00 0.00 83 1018.5
20260507110903 44 243 0.0 1.7 0.00 0.00 0.00 83 1018.4
20260507110404 44 243 0.0 1.7 0.00 0.00 0.00 82 1018.5
20260507104903 44 243 0.0 0.0 0.00 0.00 0.00 81 1018.4
20260507103403 45 243 0.0 0.9 0.00 0.00 0.00 80 1018.4
20260507101403 46 243 0.0 4.3 0.00 0.01 0.00 78 1018.6
20260507100403 46 247 0.9 1.7 0.00 0.01 0.00 78 1018.7
20260507094903 47 267 0.9 1.7 0.00 0.01 0.00 77 1018.8
20260507094403 47 253 0.9 4.3 0.00 0.01 0.00 77 1018.8
20260507093903 47 242 2.6 5.2 0.00 0.01 0.00 76 1018.8
20260507093404 47 344 1.7 6.1 0.00 0.01 0.00 76 1018.9
20260507091403 48 251 1.7 1.7 0.00 0.01 0.00 74 1018.9
20260507090903 48 304 0.9 1.7 0.00 0.01 0.00 74 1018.9
20260507090403 49 349 0.9 1.7 0.00 0.01 0.00 73 1019.0
20260507084903 50 5 0.0 0.0 0.00 0.01 0.00 72 1019.0
20260507084403 50 296 0.0 0.0 0.00 0.01 0.00 71 1019.0
20260507083903 50 256 0.0 1.7 0.00 0.01 0.00 71 1019.0
20260507083403 50 258 0.0 4.3 0.00 0.01 0.00 71 1019.1
20260507081903 50 237 0.9 4.3 0.00 0.02 0.00 71 1019.1
20260507081403 50 268 1.7 4.3 0.00 0.02 0.00 71 1019.1
20260507080403 50 252 0.9 4.3 0.00 0.03 0.00 70 1019.2
20260507074403 51 254 0.0 0.9 0.00 0.04 0.00 70 1019.3
20260507073903 51 254 0.9 1.7 0.00 0.04 0.00 69 1019.3
20260507073403 51 254 0.9 4.3 0.00 0.05 0.00 69 1019.4
20260507071903 51 248 0.0 0.9 0.00 0.06 0.00 69 1019.5
20260507071403 51 248 0.9 1.7 0.00 0.07 0.00 68 1019.5
20260507070903 51 263 0.9 1.7 0.00 0.08 0.00 69 1019.6
20260507070404 51 274 0.9 4.3 0.00 0.09 0.00 68 1019.7
20260507064903 51 260 1.7 1.7 0.00 0.10 0.00 68 1019.7
20260507063903 51 245 0.9 1.7 0.00 0.12 0.00 70 1019.9
20260507061903 51 250 0.0 0.9 0.00 0.15 0.00 68 1019.8
20260507060904 51 250 0.0 0.0 0.00 0.17 0.00 68 1019.7
20260507060403 51 250 0.0 0.9 0.00 0.17 0.00 69 1019.8
20260507054904 51 250 0.0 0.9 0.00 0.18 0.00 68 1019.8
20260507054404 51 250 0.9 1.7 0.00 0.18 0.00 69 1019.8
20260507053904 51 309 0.9 1.7 0.00 0.18 0.00 70 1019.9
20260507053404 51 309 0.0 1.7 0.00 0.18 0.00 71 1019.9
20260507051904 51 309 0.9 0.9 0.00 0.18 0.00 71 1019.9
20260507051403 51 309 0.0 0.0 0.00 0.18 0.00 70 1019.8
20260507050903 51 309 0.0 0.0 0.00 0.18 0.00 71 1019.7
20260507050404 51 309 0.9 1.7 0.00 0.18 0.00 70 1019.8
20260507044904 51 309 0.0 0.0 0.00 0.18 0.18 69 1019.8
20260507044403 51 310 0.0 0.0 0.00 0.18 0.18 69 1019.7
20260507043904 51 309 0.0 0.0 0.00 0.18 0.18 69 1019.8
20260507041904 51 310 0.0 0.0 0.00 0.18 0.18 67 1019.6
20260507040903 52 309 0.0 0.0 0.00 0.18 0.18 65 1019.5
20260507040403 52 309 0.0 0.9 0.00 0.18 0.18 65 1019.7
20260507034904 53 309 0.0 0.0 0.00 0.18 0.18 62 1019.6
20260507033403 54 309 0.0 0.9 0.00 0.18 0.18 61 1019.9
20260507031904 54 309 0.0 0.0 0.00 0.18 0.18 59 1019.6
20260507031403 54 309 0.0 0.9 0.00 0.18 0.18 59 1019.5
20260507030404 55 330 0.0 0.0 0.00 0.18 0.18 59 1019.6
20260507023903 55 330 0.0 1.7 0.00 0.18 0.18 52 1019.4
20260507023405 55 313 0.0 4.3 0.00 0.18 0.18 53 1019.3
20260507021904 55 316 1.7 4.3 0.00 0.18 0.18 53 1019.2
20260507021404 55 42 0.0 0.9 0.00 0.18 0.18 52 1019.1
20260507020904 56 42 0.9 0.9 0.00 0.18 0.18 51 1019.1
20260507020404 56 42 0.0 4.3 0.00 0.18 0.18 52 1019.1
20260507014904 56 11 0.9 4.3 0.00 0.18 0.18 53 1018.8
20260507014405 56 338 0.0 0.9 0.00 0.18 0.18 53 1018.8
20260507013903 56 339 0.9 1.7 0.00 0.18 0.18 53 1018.7
20260507013403 56 32 0.0 1.7 0.00 0.18 0.18 52 1018.5
20260507011904 57 33 1.7 4.3 0.00 0.18 0.18 50 1018.4
20260507011404 57 355 0.0 0.9 0.00 0.18 0.18 50 1018.4
20260507010904 57 8 0.0 1.7 0.00 0.18 0.18 50 1018.4
20260507010404 57 28 1.7 7.8 0.00 0.18 0.18 48 1018.4
20260507003904 58 24 1.7 4.3 0.00 0.18 0.18 48 1018.5
20260507003404 58 345 0.9 5.2 0.00 0.18 0.18 46 1018.4
20260507001403 59 55 1.7 1.7 0.00 0.18 0.18 48 1018.4
20260507000904 59 10 3.5 6.1 0.00 0.18 0.18 47 1018.5
20260506234904 60 17 2.6 7.8 0.00 0.18 0.18 46 1018.4
20260506234403 60 30 2.6 7.8 0.00 0.18 0.18 45 1018.4
20260506233404 60 47 6.1 8.7 0.00 0.18 0.18 46 1018.3
20260506231903 61 38 5.2 8.7 0.00 0.18 0.18 45 1018.2
20260506231404 61 40 7.8 12.2 0.00 0.18 0.18 43 1018.2
20260506230903 61 21 7.8 13.9 0.00 0.18 0.18 43 1018.2
20260506230404 62 37 5.2 12.2 0.00 0.18 0.18 43 1018.2
20260506224905 62 48 6.1 7.8 0.00 0.18 0.18 40 1018.2
20260506223904 63 44 4.3 7.0 0.00 0.18 0.18 41 1018.0
20260506223405 63 42 5.2 11.3 0.00 0.18 0.18 41 1018.0
20260506221903 62 16 5.2 7.8 0.00 0.18 0.18 43 1017.9
20260506221402 62 56 7.8 11.3 0.00 0.18 0.18 40 1017.9
20260506220902 62 59 6.1 11.3 0.00 0.18 0.18 40 1017.9
20260506220403 62 66 1.7 11.3 0.00 0.18 0.18 39 1017.9
20260506214902 64 55 4.3 11.3 0.00 0.18 0.18 39 1018.1
20260506214402 64 319 7.0 13.0 0.00 0.18 0.18 41 1018.2
20260506213902 63 69 1.7 11.3 0.00 0.18 0.18 40 1018.2
20260506213402 62 320 2.6 12.2 0.00 0.18 0.18 40 1018.2
20260506211903 64 86 4.3 7.8 0.00 0.18 0.18 40 1018.4
20260506211402 64 51 1.7 6.1 0.00 0.18 0.18 38 1018.4
20260506210902 65 83 7.0 13.0 0.00 0.18 0.18 36 1018.4
20260506210403 66 49 6.1 13.0 0.00 0.18 0.18 40 1018.5
20260506204902 64 44 6.1 8.7 0.00 0.18 0.18 43 1018.8
20260506204402 63 88 2.6 6.1 0.00 0.18 0.18 39 1018.9
20260506203902 63 55 2.6 11.3 0.00 0.18 0.18 41 1019.0
20260506203402 62 66 5.2 8.7 0.00 0.18 0.18 41 1019.0
20260506201903 62 66 7.0 8.7 0.00 0.18 0.18 42 1019.3
20260506201403 61 65 2.6 7.0 0.00 0.18 0.18 41 1019.3
20260506200902 62 63 4.3 6.1 0.00 0.18 0.18 42 1019.5
20260506200403 63 105 5.2 11.3 0.00 0.18 0.18 37 1019.5
20260506194903 65 30 4.3 8.7 0.00 0.18 0.18 41 1019.7
20260506194402 65 32 6.1 12.2 0.00 0.18 0.18 43 1019.8
20260506193403 65 48 4.3 11.3 0.00 0.18 0.18 39 1019.9
20260506191902 60 30 5.2 7.8 0.00 0.18 0.18 41 1020.0
20260506191402 64 83 6.1 8.7 0.00 0.18 0.18 40 1020.0
20260506190902 63 49 4.3 11.3 0.00 0.18 0.18 42 1019.9
20260506190403 62 77 4.3 15.6 0.00 0.18 0.18 43 1019.9
20260506184903 62 38 8.7 14.8 0.00 0.18 0.18 42 1019.9
20260506184402 63 73 6.1 13.9 0.00 0.18 0.18 41 1019.9
20260506181902 62 58 7.0 14.8 0.00 0.18 0.18 42 1020.2
20260506181402 62 49 7.8 8.7 0.00 0.18 0.18 49 1020.3
20260506180903 62 64 7.0 13.0 0.00 0.18 0.18 45 1020.4
20260506180402 62 53 7.8 14.8 0.00 0.18 0.18 46 1020.5
20260506174902 59 61 5.2 7.8 0.00 0.18 0.18 49 1020.7
20260506173402 60 41 7.8 14.8 0.00 0.18 0.18 54 1020.8
20260506171902 58 67 8.7 12.2 0.00 0.18 0.18 61 1020.9
20260506170403 56 61 3.5 13.0 0.00 0.18 0.18 62 1020.9
20260506164903 55 51 7.0 13.9 0.00 0.18 0.18 65 1021.0
20260506164402 55 44 7.8 11.3 0.00 0.18 0.18 62 1021.0